FW7313 Weather Reports


time (UTC)temp
C
wind
direction
speed
KPH
gust
KPH
rain 1hr
cm
rain 24hr
cm
rain mn
cm
humidity
%
barometer
mb
20260504192030 27 213 12.9 20.9 0.00 0.00 0.00 44 1012.6
20260504191527 27 184 0.0 12.9 0.00 0.00 0.00 44 1012.5
20260504191023 28 141 1.6 9.7 0.00 0.00 0.00 43 1012.5
20260504190520 27 161 1.6 4.8 0.00 0.00 0.00 44 1012.4
20260504190015 27 5 0.0 11.3 0.00 0.00 0.00 44 1012.4
20260504185513 28 165 8.0 17.7 0.00 0.00 0.00 43 1012.6
20260504185009 28 148 4.8 20.9 0.00 0.00 0.00 42 1012.7
20260504184504 27 224 3.2 16.1 0.00 0.00 0.00 46 1012.6
20260504184000 28 213 6.4 24.1 0.00 0.00 0.00 45 1012.6
20260504183457 27 159 1.6 6.4 0.00 0.00 0.00 43 1012.6
20260504182955 26 27 0.0 12.9 0.00 0.00 0.00 46 1012.6
20260504182452 26 136 9.7 12.9 0.00 0.00 0.00 46 1012.8
20260504181949 27 135 1.6 20.9 0.00 0.00 0.00 46 1013.0
20260504181446 27 275 0.0 11.3 0.00 0.00 0.00 43 1013.1
20260504180945 27 245 4.8 6.4 0.00 0.00 0.00 44 1013.1
20260504180443 27 180 6.4 20.9 0.00 0.00 0.00 43 1013.1
20260504175941 27 211 6.4 9.7 0.00 0.00 0.00 44 1013.1
20260504175438 27 169 6.4 12.9 0.00 0.00 0.00 44 1013.2
20260504174936 27 178 4.8 9.7 0.00 0.00 0.00 44 1013.1
20260504174433 26 219 0.0 16.1 0.00 0.00 0.00 47 1013.3
20260504173930 26 217 4.8 20.9 0.00 0.00 0.00 46 1013.4
20260504173426 27 280 6.4 16.1 0.00 0.00 0.00 43 1013.5
20260504172924 26 287 3.2 11.3 0.00 0.00 0.00 46 1013.6
20260504172420 27 286 4.8 22.5 0.00 0.00 0.00 44 1013.4
20260504171916 26 152 0.0 16.1 0.00 0.00 0.00 44 1013.5
20260504171414 27 170 1.6 12.9 0.00 0.00 0.00 45 1013.6
20260504170911 26 179 4.8 17.7 0.00 0.00 0.00 45 1013.8
20260504170407 26 96 0.0 17.7 0.00 0.00 0.00 47 1013.8
20260504160326 26 228 1.6 12.9 0.00 0.00 0.00 46 1014.6
20260504150750 25 17 12.9 27.4 0.00 0.00 0.00 48 1014.3
20260504150247 24 258 8.0 11.3 0.00 0.00 0.00 50 1014.5
20260504141217 23 143 1.6 11.3 0.00 0.00 0.00 54 1014.4
20260504140714 23 196 0.0 4.8 0.00 0.00 0.00 54 1014.3
20260504140209 23 196 0.0 1.6 0.00 0.00 0.00 55 1014.1
20260504130637 18 136 0.0 0.0 0.00 0.00 0.00 65 1014.3
20260504130134 18 166 0.0 0.0 0.00 0.00 0.00 66 1014.3
20260504110525 13 184 0.0 0.0 0.00 0.00 0.00 80 1013.9
20260504100442 14 188 0.0 0.0 0.00 0.00 0.00 81 1014.0
20260504081835 15 152 0.0 0.0 0.00 0.00 0.00 72 1015.1
20260504081332 15 151 0.0 0.0 0.00 0.00 0.00 72 1014.5
20260504080827 15 151 0.0 0.0 0.00 0.00 0.00 72 1015.1
20260504080325 15 151 0.0 0.0 0.00 0.00 0.00 70 1015.1
20260504070252 17 167 0.0 0.0 0.00 0.00 0.00 64 1016.0
20260504060213 17 134 0.0 0.0 0.00 0.00 0.00 62 1016.4
20260504050640 16 137 0.0 0.0 0.00 0.00 0.00 63 1016.9
20260504050137 16 164 0.0 0.0 0.00 0.00 0.00 64 1016.7
20260504045635 16 184 0.0 0.0 0.00 0.00 0.00 64 1016.9
20260504045134 16 155 0.0 0.0 0.00 0.00 0.00 64 1016.8
20260504044633 16 187 0.0 0.0 0.00 0.00 0.00 64 1016.9
20260504044129 16 171 0.0 0.0 0.00 0.00 0.00 64 1017.1
20260504043626 16 169 0.0 0.0 0.00 0.00 0.00 64 1017.1
20260504043123 16 160 0.0 0.0 0.00 0.00 0.00 64 1017.0
20260504042621 16 161 0.0 0.0 0.00 0.00 0.00 64 1017.1
20260504042117 16 161 0.0 0.0 0.00 0.00 0.00 63 1016.9
20260504041613 16 161 0.0 0.0 0.00 0.00 0.00 62 1016.8
20260504041110 17 161 0.0 0.0 0.00 0.00 0.00 61 1016.7
20260504040607 17 158 0.0 0.0 0.00 0.00 0.00 61 1016.8
20260504040103 16 180 0.0 0.0 0.00 0.00 0.00 61 1016.8
20260504035600 16 170 0.0 0.0 0.00 0.00 0.00 62 1017.1
20260504035056 17 219 0.0 0.0 0.00 0.00 0.00 63 1017.2
20260504034555 17 175 0.0 0.0 0.00 0.00 0.00 61 1017.1
20260504034051 17 175 0.0 0.0 0.00 0.00 0.00 58 1017.0
20260504033549 17 175 0.0 0.0 0.00 0.00 0.00 57 1017.1
20260504033046 17 174 0.0 0.0 0.00 0.00 0.00 57 1017.1
20260504032543 17 177 0.0 0.0 0.00 0.00 0.00 57 1017.2
20260504032040 17 183 0.0 0.0 0.00 0.00 0.00 57 1017.1
20260504031537 17 203 0.0 0.0 0.00 0.00 0.00 56 1017.0
20260504031033 17 218 0.0 0.0 0.00 0.00 0.00 57 1017.0
20260504030531 18 228 0.0 0.0 0.00 0.00 0.00 56 1016.8
20260504030026 18 189 0.0 0.0 0.00 0.00 0.00 53 1016.9
20260504025524 19 177 0.0 0.0 0.00 0.00 0.00 51 1016.8
20260504025020 19 150 0.0 0.0 0.00 0.00 0.00 49 1016.9
20260504024518 19 152 0.0 0.0 0.00 0.00 0.00 49 1016.9
20260504024014 19 98 0.0 0.0 0.00 0.00 0.00 49 1016.8
20260504023511 19 142 0.0 0.0 0.00 0.00 0.00 50 1016.8
20260504023007 19 127 0.0 0.0 0.00 0.00 0.00 51 1016.9
20260504022503 19 159 0.0 0.0 0.00 0.00 0.00 50 1016.9
20260504021959 19 180 0.0 0.0 0.00 0.00 0.00 50 1016.9
20260504021457 19 166 0.0 0.0 0.00 0.00 0.00 49 1017.0
20260504020954 19 211 0.0 0.0 0.00 0.00 0.00 49 1016.8
20260504020450 19 96 0.0 0.0 0.00 0.00 0.00 50 1017.0
20260504015947 19 177 0.0 0.0 0.00 0.00 0.00 50 1016.8
20260504015443 19 165 0.0 0.0 0.00 0.00 0.00 50 1017.0
20260504014939 20 191 0.0 0.0 0.00 0.00 0.00 50 1016.7
20260504014436 20 161 0.0 0.0 0.00 0.00 0.00 49 1017.0
20260504013932 20 219 0.0 0.0 0.00 0.00 0.00 48 1017.0
20260504013431 20 197 0.0 0.0 0.00 0.00 0.00 46 1017.0
20260504012927 20 166 0.0 0.0 0.00 0.00 0.00 45 1017.0
20260504012425 20 167 0.0 0.0 0.00 0.00 0.00 45 1016.7
20260504011922 21 132 0.0 0.0 0.00 0.00 0.00 44 1016.9
20260504011419 21 216 0.0 1.6 0.00 0.00 0.00 44 1016.8
20260504010914 21 156 4.8 6.4 0.00 0.00 0.00 42 1016.8
20260504010411 21 184 0.0 0.0 0.00 0.00 0.00 42 1016.8
20260504005907 21 166 0.0 0.0 0.00 0.00 0.00 42 1016.7
20260504005404 21 134 0.0 4.8 0.00 0.00 0.00 40 1016.7
20260504004902 22 133 0.0 4.8 0.00 0.00 0.00 39 1016.8
20260504004400 22 156 0.0 6.4 0.00 0.00 0.00 38 1016.9
20260504003856 22 133 8.0 11.3 0.00 0.00 0.00 37 1016.9
20260504003352 22 187 3.2 11.3 0.00 0.00 0.00 37 1016.8
20260504002849 22 207 0.0 11.3 0.00 0.00 0.00 37 1016.7
20260504002346 22 198 0.0 11.3 0.00 0.00 0.00 36 1016.5
20260504001843 22 159 0.0 4.8 0.00 0.00 0.00 36 1016.8
20260504001341 23 167 6.4 11.3 0.00 0.00 0.00 34 1016.7
20260504000837 23 171 0.0 0.0 0.00 0.00 0.00 35 1016.7
20260504000334 23 170 6.4 11.3 0.00 0.00 0.00 32 1016.8
20260503235832 23 60 6.4 12.9 0.00 0.00 0.00 32 1016.7
20260503235329 23 142 3.2 9.7 0.00 0.00 0.00 32 1016.7
20260503234827 23 139 1.6 9.7 0.00 0.00 0.00 32 1016.8
20260503234325 23 173 0.0 9.7 0.00 0.00 0.00 32 1017.0
20260503233822 24 144 8.0 11.3 0.00 0.00 0.00 31 1017.0
20260503233318 24 171 0.0 16.1 0.00 0.00 0.00 31 1017.1
20260503232814 24 69 0.0 1.6 0.00 0.00 0.00 31 1017.0
20260503232312 24 114 8.0 16.1 0.00 0.00 0.00 29 1017.1
20260503231810 25 152 0.0 9.7 0.00 0.00 0.00 30 1017.1
20260503231306 24 157 6.4 17.7 0.00 0.00 0.00 29 1017.2
20260503230802 25 89 3.2 16.1 0.00 0.00 0.00 29 1017.4
20260503230300 25 128 0.0 6.4 0.00 0.00 0.00 28 1017.2
20260503225757 25 146 3.2 16.1 0.00 0.00 0.00 28 1017.3
20260503225252 25 187 4.8 6.4 0.00 0.00 0.00 27 1017.2
20260503224749 25 164 8.0 12.9 0.00 0.00 0.00 27 1017.1
20260503224247 25 52 0.0 4.8 0.00 0.00 0.00 29 1017.4
20260503223744 25 170 3.2 11.3 0.00 0.00 0.00 27 1017.7
20260503223242 25 282 0.0 17.7 0.00 0.00 0.00 30 1017.6
20260503222737 25 146 4.8 11.3 0.00 0.00 0.00 28 1017.8
20260503222236 25 170 0.0 9.7 0.00 0.00 0.00 28 1017.5
20260503221734 25 94 9.7 12.9 0.00 0.00 0.00 28 1017.5
20260503221232 25 140 12.9 17.7 0.00 0.00 0.00 26 1017.6
20260503220728 25 174 14.5 17.7 0.00 0.00 0.00 27 1017.3
20260503220225 25 179 1.6 6.4 0.00 0.00 0.00 29 1017.5
20260503215721 25 129 0.0 11.3 0.00 0.00 0.00 30 1017.4
20260503215219 26 172 6.4 16.1 0.00 0.00 0.00 28 1017.4
20260503214717 26 168 1.6 9.7 0.00 0.00 0.00 26 1017.8
20260503214213 26 76 1.6 11.3 0.00 0.00 0.00 26 1017.8
20260503213711 25 75 1.6 9.7 0.00 0.00 0.00 27 1017.8
20260503213208 26 170 11.3 12.9 0.00 0.00 0.00 24 1018.0
20260503212705 26 145 0.0 4.8 0.00 0.00 0.00 24 1017.9
20260503212203 26 241 1.6 4.8 0.00 0.00 0.00 26 1018.0
20260503211700 26 57 3.2 4.8 0.00 0.00 0.00 25 1018.1
20260503211155 26 319 0.0 0.0 0.00 0.00 0.00 26 1018.0
20260503210652 26 175 0.0 4.8 0.00 0.00 0.00 25 1018.2
20260503210149 26 232 1.6 6.4 0.00 0.00 0.00 24 1018.1
20260503205644 26 133 0.0 4.8 0.00 0.00 0.00 25 1018.2
20260503205141 26 138 0.0 6.4 0.00 0.00 0.00 25 1018.2
20260503204638 26 191 1.6 9.7 0.00 0.00 0.00 25 1018.3
20260503204135 26 113 6.4 12.9 0.00 0.00 0.00 25 1018.2
20260503203632 26 122 6.4 12.9 0.00 0.00 0.00 24 1018.4
20260503203129 27 157 3.2 6.4 0.00 0.00 0.00 23 1018.7
20260503202627 27 168 6.4 11.3 0.00 0.00 0.00 25 1018.6
20260503202125 26 4 0.0 12.9 0.00 0.00 0.00 26 1018.6
20260503201622 26 61 4.8 22.5 0.00 0.00 0.00 25 1018.9
20260503201120 26 46 6.4 9.7 0.00 0.00 0.00 23 1018.9
20260503200616 26 30 0.0 4.8 0.00 0.00 0.00 21 1018.8
20260503200112 26 28 6.4 9.7 0.00 0.00 0.00 21 1019.1
20260503195609 26 96 0.0 6.4 0.00 0.00 0.00 23 1019.2
20260503195105 27 67 3.2 22.5 0.00 0.00 0.00 21 1019.3
20260503194603 26 63 3.2 9.7 0.00 0.00 0.00 23 1019.2
20260503194058 26 60 8.0 16.1 0.00 0.00 0.00 21 1019.0
20260503193555 26 71 0.0 12.9 0.00 0.00 0.00 22 1019.2
20260503193050 26 11 0.0 1.6 0.00 0.00 0.00 22 1019.4
20260503192547 27 50 4.8 6.4 0.00 0.00 0.00 21 1019.5